Location: Chuathbaluk
(61.5726°N, 159.2454°W)
Time: 03:15:18
(UTC+00:00)

Altair - Pass Details

Date: 02 December 2020
Orbit: 1501 x 1682 km, 47.2° (Epoch: 23 January)

Event Time Altitude Azimuth Distance (km) Brightness Sun altitude
Rises 05:14:49 0° 187° (S) 4,725 10.2 -25.0°
Reaches altitude 10° 05:19:42 10° 166° (SSE) 3,711 9.4 -25.6°
Enters shadow 05:22:18 14° 150° (SSE) 3,401 9.0 -25.9°
